星链-36940(STARLINK-36940)

导读

STARLINK-36940(NORAD编号68027)是美国SpaceX公司星链(Starlink)卫星互联网星座的一员,属于低轨(LEO)通信卫星。星链项目旨在通过大规模低轨卫星组网,为全球提供高速低延迟互联网接入服务,尤其覆盖地面基础设施难以抵达的偏远区域。作为星链批量发射的卫星之一,该卫星运行于近地轨道,2026年SpaceX计划将包括这类星链卫星在内的约4400颗卫星轨道从550公里降至480公里,以降低碰撞风险,减少太空碎片隐患,提升太空运行安全性。

基本信息
目录编号:
68027
目录名称:
STARLINK-36940
国际标识:
2026-040N
轨道中心:
EARTH
卫星名称:
星链-36940
卫星全名:
星链-36940(STARLINK-36940)
卫星状态:
在轨 (已飞行195 天)
发射日期:
2026-03-01 UTC
国别 :
美国 (US)
星等 :
--
该卫星已列入 空间交会检测服务 Space Conjunction Data Service (SCDS) ,当前飞行风险评估等级: 无高风险
轨道信息
数据来源 国际轨道数据
星历时间: 2026-09-12T03:55:59+0800
15小时前
查看轨道信息
半长轴: 6843.693km
偏心率: 0.0001873
轨道倾角: 97.285°
近地点辐角 95.663°
升交点赤经 202.361°
平近点角 264.483°
近地点: 464.274km
远地点: 466.838km
周期: 93.906分钟
每日圈数: 15.334409
详细信息
固有亮度:
5
最大亮度:
2.5
卫星平台:
Starlink V1.0
覆盖范围:
全球
运营商:
太空探索技术公司
运营商所在国:
美国
制造商(研发单位):
太空探索技术公司
制造商所在国:
美国
使用方式:
暂无
卫星简介
Starlink 计划是 SpaceX 推出的全球卫星互联网项目,通过发射低轨道卫星,为全球尤其是偏远地区提供高速、低延迟的互联网服务。自 2019 年起,Starlink 已部署数千颗卫星,旨在缩小全球数字鸿沟,推动互联网普及。该项目还为军事、航空等行业提供通信支持,带来广泛经济效益。
2D轨道图
3D轨道图
轨道高度分析图
轨道倾角分析图
轨道综合分析图
查看轨道综合分析图
交会数据列表
事件ID 空间交会对象 最接近时刻(TCA) 交会距离 交会风险概率(CRP) 交会风险指数(CRI) 操作
CDM_260914-132006-802706-943921
2026-09-14T
13:20:50+0000
0.724 km
远距离
6.064295E-5 中风险 0.71
CDM_260912-171704-780406-802723
2026-09-12T
17:17:47+0000
1.090 km
极远距离
1.863259E-5 中风险 0.6
CDM_260914-114606-802706-943921
2026-09-14T
11:46:52+0000
1.091 km
极远距离
1.556827E-5 中风险 0.59
CDM_260912-172504-939806-802721
OBJECT D (49398)
2026-09-12T
17:25:57+0000
1.689 km
极远距离
3.787577E-6 低风险 0.47
CDM_260914-145406-802706-943921
2026-09-14T
14:54:48+0000
2.324 km
极远距离
1.626442E-6 低风险 0.39
CDM_260912-211204-780406-802723
2026-09-12T
21:12:42+0000
2.585 km
极远距离
1.558465E-6 低风险 0.39
CDM_260905-213805-401306-802721
2026-09-05T
21:38:50+0000
2.730 km
极远距离
1.296633E-6 低风险 0.37
CDM_260913-060904-867606-802721
2026-09-13T
06:09:38+0000
2.948 km
极远距离
1.271114E-6 低风险 0.37
CDM_260914-163605-230206-802721
2026-09-14T
16:36:26+0000
2.940 km
极远距离
1.216595E-6 低风险 0.37
CDM_260912-110005-377906-802721
2026-09-12T
11:00:50+0000
2.791 km
极远距离
1.09558E-6 低风险 0.36
与全量物体交会距离演化趋势
与全量物体交会风险概率演化趋势